Погода в Горном

Россия / Амурская область     54°38′53″N   128°25′09″E
темп.,
°C
ветер,
м/с
пор.,
м/с
влажн.,
%
обл.,
%
осадки,
мм/ч
давл.,
гПа
погр.,
м
24 июня, чт
чт2400:00+15ссв11915 0.2 100611
03:00+13св11935 0.2 100711
06:00+16ссв1188100 0.0 100667
09:00+21ююз116672 0.0 1006505
12:00+25ююз325374 0.0 10031062
15:00+26ююз335254 0.0 1001804
18:00+19юз358795 2.3 1001247
21:00+16с018799 4.4 100113
25 июня, пт
пт2500:00+14всв1194100 2.0 100110
03:00+14с119688 2.6 100110
06:00+16всв119353 0.3 100178
09:00+20юв117694 1.1 1000478
12:00+25ю225611 0.1 1000991
15:00+27ююв21507 0.1 9981031
18:00+19ссз1279100 0.3 1002427
21:00+15вюв51193100 0.4 1002383
26 июня, сб
сб2600:00+13всв51090100 0.0 1004348
03:00+12в51091100 0.0 1004336
06:00+12в478272 0.0 1005338
09:00+16в3474100 0.0 1006521
12:00+19вюв116993 0.0 1005818
15:00+23ююв225944 0.0 10041181
18:00+21юв236771 0.0 1003451
21:00+16всв229120 0.0 100411
27 июня, вс
вс2700:00+15вюв119468 0.0 100510
03:00+13всв1297100 0.0 100618
06:00+14в368671 0.0 1006198
09:00+20вюв236615 0.0 1006541
12:00+24ююв215549 0.0 10051022
15:00+26ююв334981 0.0 10041623
18:00+23в3468100 1.2 1004416
21:00+17в2596100 2.9 1005121
28 июня, пн
пн2800:00+16всв369596 0.3 1006155
03:00+14всв399585 0.6 1006258
06:00+14всв4891100 0.0 1007356
09:00+18в4666100 0.0 1008619
12:00+22в445698 0.0 1007976
15:00+23юв3454100 0.0 10071277
18:00+22юв3361100 0.0 1007633
21:00+17в2486100 0.0 100878